| time (UTC) | temp F | wind direction | speed MPH | gust MPH | rain 1hr in | rain 24hr in | rain mn in | humidity % | barometer mb |
| 20260506154605 | 55 | 205 | 6.0 | 17.0 | 0.00 | 0.00 | 0.00 | 31 | 1007.9 |
| 20260506153057 | 54 | 250 | 5.0 | 15.0 | 0.00 | 0.00 | 0.00 | 31 | 1007.7 |
| 20260506151553 | 53 | 220 | 5.0 | 16.0 | 0.00 | 0.00 | 0.00 | 33 | 1007.6 |
| 20260506150047 | 53 | 265 | 3.0 | 11.0 | 0.00 | 0.00 | 0.00 | 37 | 1007.3 |
| 20260506144558 | 52 | 282 | 6.0 | 15.0 | 0.00 | 0.00 | 0.00 | 38 | 1007.5 |
| 20260506143040 | 52 | 268 | 2.0 | 14.0 | 0.00 | 0.00 | 0.00 | 41 | 1007.3 |
| 20260506141535 | 51 | 216 | 3.0 | 20.0 | 0.00 | 0.00 | 0.00 | 41 | 1007.2 |
| 20260506140031 | 51 | 113 | 2.0 | 12.0 | 0.00 | 0.00 | 0.00 | 44 | 1007.3 |
| 20260506134528 | 50 | 235 | 4.0 | 13.0 | 0.00 | 0.00 | 0.00 | 46 | 1007.1 |
| 20260506133025 | 49 | 239 | 0.0 | 9.0 | 0.00 | 0.00 | 0.00 | 50 | 1007.0 |
| 20260506131523 | 48 | 308 | 0.0 | 8.0 | 0.00 | 0.00 | 0.00 | 52 | 1007.0 |
| 20260506130016 | 47 | 300 | 2.0 | 11.0 | 0.00 | 0.00 | 0.00 | 55 | 1006.8 |
| 20260506124511 | 45 | 244 | 0.0 | 8.0 | 0.00 | 0.00 | 0.00 | 57 | 1006.8 |
| 20260506123007 | 44 | 255 | 0.0 | 8.0 | 0.00 | 0.00 | 0.00 | 58 | 1006.7 |
| 20260506121504 | 44 | 268 | 0.0 | 7.0 | 0.00 | 0.00 | 0.00 | 58 | 1006.5 |
| 20260506120002 | 45 | 252 | 0.0 | 0.0 | 0.00 | 0.00 | 0.00 | 57 | 1006.4 |
| 20260506114600 | 45 | 262 | 0.0 | 0.0 | 0.00 | 0.00 | 0.00 | 56 | 1006.2 |
| 20260506113059 | 45 | 302 | 1.0 | 5.0 | 0.00 | 0.00 | 0.00 | 55 | 1006.2 |
| 20260506111556 | 46 | 319 | 0.0 | 12.0 | 0.00 | 0.00 | 0.00 | 55 | 1006.1 |
| 20260506110054 | 46 | 257 | 0.0 | 0.0 | 0.00 | 0.00 | 0.00 | 56 | 1005.9 |
| 20260506104551 | 46 | 289 | 0.0 | 3.0 | 0.00 | 0.00 | 0.00 | 56 | 1005.6 |
| 20260506103054 | 46 | 292 | 0.0 | 8.0 | 0.00 | 0.00 | 0.00 | 56 | 1005.4 |
| 20260506101547 | 46 | 284 | 0.0 | 4.0 | 0.00 | 0.00 | 0.00 | 56 | 1005.2 |
| 20260506100046 | 47 | 284 | 0.0 | 3.0 | 0.00 | 0.00 | 0.00 | 56 | 1005.3 |
| 20260506094545 | 47 | 236 | 0.0 | 1.0 | 0.00 | 0.00 | 0.00 | 55 | 1005.2 |
| 20260506093042 | 47 | 271 | 0.0 | 6.0 | 0.00 | 0.00 | 0.00 | 54 | 1005.2 |
| 20260506091539 | 48 | 241 | 0.0 | 8.0 | 0.00 | 0.00 | 0.00 | 52 | 1005.1 |
| 20260506090045 | 48 | 249 | 0.0 | 5.0 | 0.00 | 0.00 | 0.00 | 50 | 1004.9 |
| 20260506084536 | 49 | 236 | 0.0 | 10.0 | 0.00 | 0.00 | 0.00 | 49 | 1004.8 |
| 20260506083030 | 49 | 271 | 3.0 | 9.0 | 0.00 | 0.00 | 0.00 | 47 | 1004.7 |
| 20260506081529 | 50 | 285 | 0.0 | 8.0 | 0.00 | 0.00 | 0.00 | 46 | 1004.7 |
| 20260506073022 | 50 | 202 | 2.0 | 9.0 | 0.00 | 0.00 | 0.00 | 43 | 1004.5 |
| 20260506071518 | 50 | 268 | 0.0 | 4.0 | 0.00 | 0.00 | 0.00 | 41 | 1004.5 |
| 20260506061507 | 53 | 205 | 2.0 | 9.0 | 0.00 | 0.00 | 0.00 | 38 | 1004.0 |
| 20260506050111 | 53 | 250 | 0.0 | 8.0 | 0.00 | 0.00 | 0.00 | 42 | 1003.7 |
| 20260506044557 | 53 | 177 | 0.0 | 4.0 | 0.00 | 0.00 | 0.00 | 43 | 1003.6 |
| 20260506043104 | 53 | 259 | 0.0 | 4.0 | 0.00 | 0.00 | 0.00 | 44 | 1003.5 |
| 20260506041554 | 53 | 239 | 1.0 | 11.0 | 0.00 | 0.00 | 0.00 | 45 | 1003.3 |
| 20260506034554 | 54 | 260 | 0.0 | 14.0 | 0.00 | 0.00 | 0.00 | 46 | 1003.0 |
| 20260506033050 | 54 | 268 | 1.0 | 7.0 | 0.00 | 0.00 | 0.00 | 45 | 1002.8 |
| 20260506031551 | 54 | 248 | 3.0 | 12.0 | 0.00 | 0.00 | 0.00 | 45 | 1002.6 |
| 20260506030053 | 54 | 243 | 3.0 | 12.0 | 0.00 | 0.00 | 0.00 | 44 | 1002.6 |
| 20260506024554 | 55 | 240 | 2.0 | 9.0 | 0.00 | 0.00 | 0.00 | 44 | 1002.4 |
| 20260506023044 | 55 | 317 | 0.0 | 10.0 | 0.00 | 0.00 | 0.00 | 44 | 1002.1 |
| 20260506021557 | 55 | 143 | 1.0 | 14.0 | 0.00 | 0.00 | 0.00 | 44 | 1001.9 |
| 20260506020041 | 55 | 245 | 5.0 | 13.0 | 0.00 | 0.00 | 0.00 | 44 | 1001.6 |
| 20260506014542 | 56 | 261 | 3.0 | 13.0 | 0.00 | 0.00 | 0.00 | 44 | 1001.4 |
| 20260506013050 | 56 | 219 | 3.0 | 15.0 | 0.00 | 0.00 | 0.00 | 45 | 1001.2 |
| 20260506011540 | 56 | 217 | 1.0 | 14.0 | 0.00 | 0.00 | 0.00 | 46 | 1001.2 |
| 20260506010040 | 56 | 200 | 2.0 | 16.0 | 0.00 | 0.00 | 0.00 | 45 | 1000.9 |
| 20260506004539 | 56 | 234 | 2.0 | 14.0 | 0.00 | 0.00 | 0.00 | 47 | 1000.8 |
| 20260506003039 | 57 | 236 | 4.0 | 11.0 | 0.00 | 0.00 | 0.00 | 48 | 1000.7 |
| 20260506001542 | 57 | 95 | 3.0 | 17.0 | 0.00 | 0.00 | 0.00 | 48 | 1000.8 |
| 20260506000042 | 57 | 178 | 3.0 | 10.0 | 0.00 | 0.00 | 0.00 | 47 | 1000.7 |
| 20260505234537 | 58 | 228 | 3.0 | 16.0 | 0.00 | 0.00 | 0.00 | 48 | 1000.6 |
| 20260505233038 | 58 | 284 | 1.0 | 14.0 | 0.00 | 0.00 | 0.00 | 48 | 1000.7 |
| 20260505231544 | 58 | 180 | 4.0 | 17.0 | 0.00 | 0.00 | 0.00 | 47 | 1000.6 |
| 20260505230038 | 59 | 217 | 6.0 | 17.0 | 0.00 | 0.00 | 0.00 | 46 | 1000.4 |
| 20260505224537 | 59 | 202 | 5.0 | 20.0 | 0.00 | 0.00 | 0.00 | 47 | 1000.5 |
| 20260505223036 | 59 | 323 | 6.0 | 18.0 | 0.00 | 0.00 | 0.00 | 47 | 1000.3 |
| 20260505221537 | 60 | 208 | 5.0 | 18.0 | 0.00 | 0.00 | 0.00 | 46 | 1000.3 |
| 20260505220037 | 60 | 256 | 3.0 | 19.0 | 0.00 | 0.00 | 0.00 | 46 | 1000.4 |
| 20260505214553 | 60 | 317 | 9.0 | 19.0 | 0.00 | 0.00 | 0.00 | 45 | 1000.5 |
| 20260505213031 | 60 | 296 | 6.0 | 22.0 | 0.00 | 0.00 | 0.00 | 47 | 1000.6 |
| 20260505211534 | 60 | 296 | 7.0 | 21.0 | 0.00 | 0.00 | 0.00 | 49 | 1001.0 |
| 20260505210030 | 58 | 271 | 4.0 | 19.0 | 0.00 | 0.00 | 0.00 | 52 | 1001.0 |
| 20260505204533 | 58 | 186 | 6.0 | 17.0 | 0.00 | 0.00 | 0.00 | 54 | 1001.2 |
| 20260505203030 | 57 | 246 | 4.0 | 21.0 | 0.00 | 0.00 | 0.00 | 57 | 1001.3 |
| 20260505201528 | 58 | 233 | 4.0 | 16.0 | 0.00 | 0.00 | 0.00 | 57 | 1001.4 |
| 20260505200038 | 56 | 192 | 3.0 | 17.0 | 0.00 | 0.00 | 0.00 | 66 | 1001.6 |
| 20260505194527 | 57 | 232 | 5.0 | 23.0 | 0.00 | 0.00 | 0.00 | 64 | 1002.0 |
| 20260505193026 | 58 | 180 | 6.0 | 20.0 | 0.00 | 0.00 | 0.00 | 60 | 1001.5 |
| 20260505191522 | 59 | 221 | 3.0 | 13.0 | 0.00 | 0.00 | 0.00 | 52 | 1001.8 |
| 20260505190029 | 58 | 157 | 7.0 | 20.0 | 0.00 | 0.00 | 0.00 | 51 | 1001.7 |
| 20260505184522 | 62 | 262 | 4.0 | 21.0 | 0.00 | 0.00 | 0.00 | 41 | 1001.4 |
| 20260505183028 | 62 | 306 | 6.0 | 20.0 | 0.00 | 0.00 | 0.00 | 40 | 1001.2 |
| 20260505181519 | 62 | 225 | 10.0 | 25.0 | 0.00 | 0.00 | 0.00 | 40 | 1001.6 |
| 20260505180022 | 63 | 138 | 9.0 | 21.0 | 0.00 | 0.00 | 0.00 | 39 | 1001.2 |
| 20260505174516 | 62 | 138 | 8.0 | 22.0 | 0.00 | 0.00 | 0.00 | 39 | 1001.1 |
| 20260505173014 | 62 | 121 | 5.0 | 24.0 | 0.00 | 0.00 | 0.00 | 40 | 1001.4 |
| 20260505171511 | 62 | 218 | 7.0 | 19.0 | 0.00 | 0.00 | 0.00 | 35 | 1001.6 |
| 20260505170010 | 61 | 207 | 5.0 | 15.0 | 0.00 | 0.00 | 0.00 | 35 | 1001.8 |
| 20260505164507 | 60 | 245 | 4.0 | 19.0 | 0.00 | 0.00 | 0.00 | 37 | 1001.4 |
| 20260505163014 | 60 | 286 | 7.0 | 18.0 | 0.00 | 0.00 | 0.00 | 35 | 1001.7 |
| 20260505161505 | 60 | 278 | 3.0 | 13.0 | 0.00 | 0.00 | 0.00 | 35 | 1001.8 |